trip booking engine
Passagers ayant des besoins spéciaux
(femmes enceintes, enfants voyageant seuls, passagers nécéssitant une assistance medicale, etc.)
Réservation de groupes
à partir de 10 passagers
hotel booking
Expedia
car booking
CarTrawler
ENVOYER
Home > Rechercher > Destinations > États-Unis > Vol pour Houston

Vol pour Houston

À chaque lancement d’un vaisseau spatiale habité aux États-Unis, ce sont les équipes de Houston qui se chargent de la coordination. Mais la ville a encore bien plus à offrir.

Houston est la plus grande ville du Texas. Elle possède le port le plus important des États-Unis et accueille le siège central du centre spatial Lyndon B. Johnson. Tous les vols spatiaux habités américains sont préparés et accompagnés depuis Houston. La ville est située sur le golfe du Mexique et jouit d’un climat chaud et humide. Sur le plan culturel, les principaux centres d’intérêt sont le Museum of Fine Arts, le Contemporary Arts Museum et la Menil Collection.

Le profil de Houston est dominé par ses tours modernes. Le centre commercial de la ville est le Civic Center, où se trouvent les principaux immeubles de bureaux, parmi lesquels le Pennzoil Place et le Tenneco Building. Le centre historique est l’Old Market Square, où vous pourrez admirer de nombreux bâtiments restaurés. Le Sam Houston Historical Park compte même plusieurs immeubles anciens entièrement reconstruits.

Quand est-ce qu'il y a des vols ? A quelle heure part le premier vol ?
A quelle heure part le dernier vol ?

Toutes les réponses à vos questions peuvent être consultées directement ici.

Départ Arrivée Vols lun. mar. mer. jeu. ven. sam. dim.
06:50 16:41 SN2726/8807/8881 X
06:50 19:35 SN2726/8801/8919 X
06:50 20:20 SN2726/8803/8859 X
06:50 23:59 SN2726/515/9066 X
06:50 23:59 SN2726/8801/9066 X
07:05 16:41 SN2726/8807/8881 X X X
07:05 19:05 SN2726/8803/8859 X X
07:05 19:35 SN2726/8801/8919 X X X
07:05 20:16 SN2726/8803/8859 X
07:05 23:59 SN2726/515/9066 X X X
07:05 23:59 SN2726/8801/9066 X X X
08:15 19:05 SN2712/8803/8859 X X
08:15 19:35 SN2712/8801/8919 X X X
08:15 20:16 SN2712/8803/8859 X
08:15 23:59 SN2712/515/9066 X X X
08:15 23:59 SN2712/8801/9066 X X X
10:35 23:59 SN2714/515/9066 X
11:15 23:59 SN2714/515/9066 X X X
12:50 23:59 SN2716/515/9066 X
12:50 16:41 SN2716/8807/8881 X
17:10 16:41 SN2720/8807/8881 X X X
17:10 19:05 SN2720/8803/8859 X X
17:10 19:35 SN2720/8801/8919 X X X
17:10 20:16 SN2720/8803/8859 X
17:10 23:59 SN2720/8801/9066 X X
18:50 16:41 SN2722/8807/8881 X X X
18:50 19:05 SN2722/8803/8859 X X
18:50 19:35 SN2722/8801/8919 X X X
18:50 20:16 SN2722/8803/8859 X
18:50 23:59 SN2722/8801/9066 X X
21:05 16:41 SN2724/8807/8881 X X X
21:05 19:05 SN2724/8803/8859 X X
21:05 19:35 SN2724/8801/8919 X X X
21:05 20:16 SN2724/8803/8859 X
21:05 23:59 SN2724/515/9066 X X
21:05 23:59 SN2724/8801/9066 X X
 Veuillez introduire votre commentaire ici.
>
>
>


Abuse
>
>
 
Chargement

Promotions de vols

› Plus de promotions

Promotions d'hôtels

Car Hire
Location de voiture - HOUSTON
Mini
Economique